ヒル彗星

C/2012 E1 ( Hill )

English version
Home page
Updated on May 7, 2015

---------------------------------------------------------------------

・ プロフィール

発見日 2012年3月2日
発見光度 19.6等
発見者 R. E. Hill (Mount Lemmon)

・ 写真集

・ 軌道要素

Epoch 2011 July 18.0 TT = JDT 2455760.5
T 2011 July 4.31267 TT                                  MPC
q   7.5031121            (2000.0)            P               Q
z  +0.0002573      Peri.   48.89675     -0.20438920     -0.55088560
 +/-0.0000029      Node   286.30423     -0.93599120     +0.35200861
e   0.9980691      Incl.  122.53418     +0.28661040     +0.75671329
From 96 observations 2011 June 10-2013 June 9, mean residual 0".6.

・ 光度変化

        m1 = 6.0 + 5 logΔ + 10.0 log r

---------------------------------------------------------------------

軌道要素はM.P.E.C. 2013-M31に掲載されたものです。
光度グラフはComet for Windowsで作成したものです。

---------------------------------------------------------------------

Copyright(C) Seiichi Yoshida (comet@aerith.net). All rights reserved.